Niagara Falls, NY

6:06 AM EDT on July 28, 2017 (GMT -0400)
Niagara Falls International

Weather History for KIAG - March, 2014

Change the Weather History Date:

Monday, March 31, 2014

  Actual Average Record
Temperature  
Mean Temperature 39 °F -  
Max Temperature 52 °F 45 °F 78 °F (1998)
Min Temperature 27 °F 30 °F 19 °F (2003)
Degree Days  
Heating Degree Days 26    
Moisture  
Dew Point 25 °F    
Average Humidity 61    
Maximum Humidity 81    
Minimum Humidity 41    
Precipitation  
Precipitation 0.00 in - - ()
Sea Level Pressure  
Sea Level Pressure 30.20 in    
Wind  
Wind Speed 3 mph (North)    
Max Wind Speed 8 mph    
Max Gust Speed -    
Visibility 10 miles    
Events      
Averages and records for this station are not official NWS values.
T = Trace of Precipitation, MM = Missing Value Source: NWS Daily Summary

Daily Weather History Graph

Daily Weather History Graph

Search for Another Location

Airport or City:

Trip Planner

Search our weather history database for the weather conditions in past years. The results will help you decide how hot, cold, wet, or windy it might be!

Date:

Astronomy

Mar. 31, 2014 Rise Set
Actual Time 6:59 AM EDT 7:41 PM EDT
Civil Twilight 6:30 AM EDT 8:09 PM EDT
Nautical Twilight 5:56 AM EDT 8:43 PM EDT
Astronomical Twilight 5:21 AM EDT 9:19 PM EDT
Moon 7:20 AM EDT (3/31) 9:00 PM EDT (3/31)
Length of Visible Light 13h 38m
Length of Day
12h 41m
New Moon, 1% of the Moon is Illuminated
Mar 31
New Moon
Apr 7
First Quarter
Apr 15
Full
Apr 22
Last Quarter
Apr 29
New

Hourly Weather History & Observations

Time (EDT) Temp. Windchill Dew Point Humidity Pressure Visibility Wind Dir Wind Speed Gust Speed Precip Events Conditions
12:53 AM 32.0 °F 25.6 °F 19.0 °F 59% 30.11 in 10.0 mi North 6.9 mph - N/A   Clear
1:53 AM 32.0 °F 24.8 °F 19.0 °F 59% 30.12 in 10.0 mi NNW 8.1 mph - N/A   Clear
2:53 AM 30.0 °F 26.5 °F 18.0 °F 61% 30.13 in 10.0 mi NW 3.5 mph - N/A   Clear
3:53 AM 30.0 °F - 19.0 °F 64% 30.14 in 10.0 mi Calm Calm - N/A   Clear
4:53 AM 28.0 °F 24.2 °F 19.0 °F 69% 30.16 in 10.0 mi NNW 3.5 mph - N/A   Clear
5:53 AM 30.0 °F 26.5 °F 19.9 °F 66% 30.18 in 10.0 mi NW 3.5 mph - N/A   Clear
6:53 AM 28.9 °F - 21.0 °F 72% 30.19 in 10.0 mi Calm Calm - N/A   Clear
7:01 AM 27.0 °F - 19.9 °F 75% 30.15 in 10.0 mi Calm Calm - N/A   Clear
7:53 AM 28.0 °F 24.2 °F 23.0 °F 81% 30.22 in 10.0 mi SW 3.5 mph - N/A   Partly Cloudy
8:53 AM 33.1 °F - 25.0 °F 72% 30.24 in 10.0 mi Calm Calm - N/A   Partly Cloudy
9:53 AM 37.0 °F - 25.0 °F 62% 30.25 in 10.0 mi Calm Calm - N/A   Partly Cloudy
10:53 AM 39.0 °F - 26.1 °F 60% 30.26 in 10.0 mi Calm Calm - N/A   Partly Cloudy
11:53 AM 42.1 °F - 27.0 °F 55% 30.25 in 10.0 mi Calm Calm - N/A   Partly Cloudy
12:53 PM 45.0 °F 43.5 °F 28.0 °F 52% 30.24 in 10.0 mi NW 3.5 mph - N/A   Partly Cloudy
1:53 PM 46.9 °F - 30.0 °F 52% 30.23 in 10.0 mi Calm Calm - N/A   Partly Cloudy
2:53 PM 48.9 °F - 30.0 °F 48% 30.22 in 10.0 mi NNW 4.6 mph - N/A   Partly Cloudy
3:53 PM 48.9 °F - 27.0 °F 43% 30.21 in 10.0 mi Calm Calm - N/A   Partly Cloudy
4:53 PM 51.1 °F - 28.0 °F 41% 30.21 in 10.0 mi NNE 3.5 mph - N/A   Scattered Clouds
5:53 PM 51.1 °F - 28.9 °F 43% 30.21 in 10.0 mi ENE 3.5 mph - N/A   Partly Cloudy
6:53 PM 48.9 °F - 30.0 °F 48% 30.21 in 10.0 mi North 3.5 mph - N/A   Partly Cloudy
7:53 PM 45.0 °F - 28.9 °F 53% 30.21 in 10.0 mi Calm Calm - N/A   Partly Cloudy
8:53 PM 41.0 °F 39.0 °F 28.9 °F 62% 30.21 in 10.0 mi East 3.5 mph - N/A   Partly Cloudy
9:53 PM 39.0 °F 36.8 °F 28.9 °F 67% 30.19 in 10.0 mi East 3.5 mph - N/A   Partly Cloudy
10:53 PM 35.1 °F - 28.0 °F 76% 30.20 in 10.0 mi Calm Calm - N/A   Partly Cloudy
11:53 PM 35.1 °F 29.3 °F 28.0 °F 76% 30.18 in 10.0 mi East 6.9 mph - N/A   Clear